Home > Weather > Grevenbroich > Past weeks

Flag for Germany Past Weather in Grevenbroich, North Rhine-Westphalia, Germany — Yesterday and Last 2 Weeks

Now
91 °F

Passing clouds.


Feels Like: 89 °F
Forecast: 68 / 89 °F
Wind: 6 mph from Southeast

Location: Monchengladbach Airport

Current Time: Aug 25, 2016 at 7:06:41 PM

Latest Report: Aug 25, 2016 at 6:20 PM


Visibility: N/A

Pressure: 29.95 "Hg

Humidity: 30%

Dew Point: 55 °F

Location of GrevenbroichLocation

Past Weather in Grevenbroich — Graph

°F

Grevenbroich Temperature Yesterday

Maximum temperature yesterday: 90 °F (at 4:50 PM)
Minimum temperature yesterday: 63 °F (at 7:50 AM)
Average temperature yesterday: 81 °F

High & Low Weather Summary for the Past Weeks

 TemperatureHumidityPressure
High91 °F (Aug 25, 4:50 PM)100% (Aug 11, 7:50 PM)30.33 "Hg (Aug 11, 7:50 PM)
Low48 °F (Aug 11, 7:50 AM)26% (Aug 25, 4:50 PM)29.77 "Hg (Aug 18, 2:50 PM)
Average70 °F63%30.08 "Hg
* Reported Aug 10 5:20 PM — Aug 25 5:50 PM, Grevenbroich, Weather by CustomWeather, © 2016

Note: Actual official high and low records may vary slightly from our data, if they occured in-between our weather recording intervals... More about our weather records

Advertising

Grevenbroich Weather History for the Previous 24 Hours

Scroll right to see more
 ConditionsComfort  
Time TempWeatherWind HumidityBarometerVisibility
5:50 PM
Thu, Aug 25
91 °FPassing clouds.6 mph30%29.95 "HgN/A
5:20 PM91 °FPassing clouds.6 mph26%29.95 "HgN/A
4:50 PM91 °FClear.9 mph26%29.95 "Hg10 mi
4:20 PM90 °FPassing clouds.9 mph27%29.98 "HgN/A
3:50 PM90 °FPassing clouds.8 mph29%29.98 "HgN/A
3:20 PM90 °FPassing clouds.9 mph29%29.98 "HgN/A
2:50 PM90 °FPassing clouds.9 mph29%29.98 "HgN/A
2:20 PM88 °FPassing clouds.9 mph33%29.98 "HgN/A
1:50 PM88 °FPassing clouds.9 mph33%30.01 "HgN/A
1:20 PM86 °FPassing clouds.10 mph38%30.01 "HgN/A
12:50 PM84 °FPassing clouds.10 mph40%30.01 "HgN/A
12:20 PM82 °FPassing clouds.10 mph45%30.01 "HgN/A
11:50 AM82 °FPassing clouds.9 mph45%30.04 "HgN/A
11:20 AM81 °FPassing clouds.9 mph48%30.04 "HgN/A
10:50 AM79 °FPassing clouds.13 mph51%30.04 "HgN/A
10:20 AM77 °FPassing clouds.10 mph54%30.04 "HgN/A
9:50 AM75 °FPassing clouds.12 mph61%30.04 "HgN/A
9:20 AM73 °FPassing clouds.8 mph65%30.04 "HgN/A
8:50 AM73 °FPassing clouds.8 mph61%30.04 "HgN/A
8:20 AM72 °FPassing clouds.7 mph69%30.04 "HgN/A
7:50 AM68 °FPassing clouds.5 mph78%30.04 "HgN/A
7:20 AM66 °FPassing clouds.5 mph78%30.04 "HgN/A
6:50 AM66 °FPassing clouds.5 mph78%30.04 "HgN/A
6:20 AM64 °FSunny.3 mph83%30.07 "Hg10 mi
8:20 PM
Wed, Aug 24
79 °FClear.5 mph58%30.09 "Hg10 mi
7:50 PM82 °FClear.6 mph48%30.09 "Hg10 mi
7:20 PM86 °FClear.9 mph43%30.09 "Hg10 mi
Weather by CustomWeather, © 2016

See weather overviewHow to use our weather pages